Starlink 35770

operational
NORAD ID: 66977 Int'l Des: 2025-288 Owner: SPXS Country: US Constellation: starlink
LEOCIRCULAR

关于 Starlink 35770

正在加载描述...

实时位置

正在加载3D地球...

即将过境

高度历史

Altitude vs Time

uPlot chart will show altitude changes over time

两行轨道根数

1 66977C 25288U 25346.10534722 -.01074100 00000+0 -18332-2 0 3463
2 66977 43.0042 171.7944 0001862 272.7576 165.2793 16.02598866 11
Epoch: Dec 12, 2025 • Age: 54 hours

当前状态

高度 281.2 km
速度 7.74 km/s
星下点 -12.17°S, 179.15°E
发射日期 Dec 8, 2025
运行时间 5 days
类型 internet

技术详情

分类 Payload
质量 575.00 kg
干质量 530.00 kg
总质量 575.00 kg
长度 0.30 m
直径 4.10 m
跨度 29.00 m
形状 Box + pan
制造商 SPXS
平台类型 Starlink V2MO
阶段状态 In Orbit
所有者/国家 SPXS/US

大型星座

Loading constellations...